Weather Roundup
Issued by NWS Corpus Christi, TX

Home | Current Version | Previous Version | Text Only | Print | Product List | Glossary On
Versions: 1 2 3 4 5 6 7 8 9 10 11 12 13 14 15 16 17 18 19 20 21 22 23 24 25 26 27 28 29 30 31 32 33 34 35 36 37 38 39 40 41 42 43 44 45 46 47 48 49 50
000
ASUS44 KCRP 090010
HRRCRP

SOUTH TEXAS REGIONAL WEATHER ROUNDUP
NATIONAL WEATHER SERVICE CORPUS CHRISTI TX
600 PM CST MON FEB 08 2016


TXZ229>244-090100-
...CORPUS CHRISTI AREA OBSERVATIONS...

CITY           SKY/WX    TMP DP  RH WIND       PRES   REMARKS
CORPUS CHRISTI CLOUDY    65  21  18 NW9       30.30S
NAS CORPUS CHR MOCLDY    62  42  47 N7        30.30S
ROCKPORT       PTCLDY    63  35  35 NW9       30.30R
KINGSVILLE NAS CLOUDY    62  28  27 NW8       30.31S
ALICE            N/A     62  24  23 N6        30.31S
FALFURRIAS     CLOUDY    64  21  19 CALM      30.32S
$$

...VICTORIA AREA OBSERVATIONS...

CITY           SKY/WX    TMP DP  RH WIND       PRES   REMARKS
VICTORIA       PTCLDY    57  26  30 NW8       30.29S
BEEVILLE       FAIR      64  24  22 NW8       30.31S
PLEASANTON     CLOUDY    60  22  23 W5        30.33S
SAN ANTONIO    PTCLDY    61  19  19 NW12      30.31F
$$

...LAREDO AREA OBSERVATIONS...

CITY           SKY/WX    TMP DP  RH WIND       PRES   REMARKS
LAREDO         PTCLDY    64  21  19 NW7       30.34R
COTULLA        PTCLDY    63  20  19 NW7       30.34R
DEL RIO        CLEAR     62  16  16 NW7       30.36S
MCALLEN        CLOUDY    67  27  22 NE5       30.33S
HEBBRONVILLE   NOT AVBL
$$

...OTHER TEXAS OBSERVATIONS...

CITY           SKY/WX    TMP DP  RH WIND       PRES   REMARKS
BROWNSVILLE    MOCLDY    59  37  44 N7        30.33S
HOUSTON        PTCLDY    57  13  17 NW17G23   30.23R
COL. STATION   CLEAR     57   8  14 NW21G30   30.26R
AUSTIN         PTCLDY    61  14  16 NW9       30.28S
WACO           CLEAR     55   9  16 NW15G29   30.27F
FORT WORTH     PTCLDY    53   6  15 NW21      30.25R
WICHITA FALLS  CLEAR     50   3  14 N16       30.29R
LUBBOCK        PTCLDY    53  19  26 N10       30.33S
EL PASO        PTCLDY    61  15  16 NE3       30.30R
$$

...MARINE OBSERVATIONS...

STATION/POSITION TIME  SKY/WX   TEMP    WIND        PRES    VSBY  WAVE   SWELL
                                AIR SEA DIR/SP/G                  HT/PER HT/PER
                 (UTC)          (F)     (DEG/KT/KT) (MB)    (MI)  (FT/S) (FT/S)
PORT ARANSAS     0000            63 59  330/  6/  7 1026.7S
BUOY 90 E PORT A 2350            64 70  320/ 23/ 29 1024.2R         5/ 6
BUOY 45 SE BAFFI 2350            63 69  360/ 12/ 14 1026.1R         5/ 7   3/ 7
BUOY 200 E PT IS 2350                                 N/A           6/ 7
BUOY 15 E GALVES 2350            59 59  310/ 21/ 27 1022.1R         3/ 4
$$



USA.gov is the U.S. government's official web portal to all federal, state and local government web resources and services.